STARLINK-1286, 45417

Orbit data source: Space-Track

STARLINK-1286, 45417 is a payload satellite owned by SpaceX/Seattle (US) in LEO that was launched on Wed, 18 Mar 2020 UTC via an FALCON 9 launch vehicle from the Air Force Eastern Test Range (AFETR). Payload-class satellites include a variety of spacecraft equipped with specific instruments for various scientific and technological missions. These include communications satellites like Starlink; space stations such as the ISS; scientific satellites like the Hubble; Earth observation satellites from companies like Planet Labs, Umbra, and HawkEye 360; GPS; miniature CubeSats for education and research; and military/defense satellites.

Loading next visibility...
Identifier
45417, 2020-019BK
Orbit
LEO
Country
Flag of USUS
Related business
Manufacturer
SpaceX/Seattle
Mission
Partially operational Commercial Communications
Bus & Motor
STARLINK, Unknown motor
Mass
260 kg wet, ~248 kg dry
Launch date (UTC)
2020-03-18 (6 years ago)
Launch vehicle
FALCON 9
Launch site
Air Force Eastern Test Range (AFETR)
Object type
Payload
Rocket body
Debris
Shape & HBR
Box + 1 Pan, 10.1 m
Radar Cross Section
13.562 m², Large (>1 m²)

Expand to show TLE details & history
Last TLE update: 14 hours ago

TLE from 14 hours ago
0 STARLINK-1286
1 45417U 20019BK  25340.65815110  .00033557  00000-0  83762-3 0  9996
2 45417  53.0525 214.5930 0005704 114.3856 245.7743 15.39881284315832
Epoch: 2025-12-06T15:47Z
TLE epoch observation values (Epoch: 2025-12-06T15:47:44.255Z)
Latitude
-0.00003°
Longitude
-98.02415°
Altitude
448.951 km
Speed
7.643 km/s
True Right ascension
14h 18m 22s
True Declination
0° 00' 00"
Sunlit
Object was in daylight at epoch
Visualization orbit readout
Latitude
Unknown
Longitude
Unknown
Altitude
Unknown
Speed
Unknown
Apparent Right ascension
Unknown
Apparent Declination
Unknown
Sunlit
N/A
Visualization observer readout
Local Sidereal Time
04:03:38
Azimuth
Unknown
Elevation
Unknown
Doppler factor
Unknown
Orbital elements
Apogee altitude
450.628 km
Perigee altitude
442.842 km
Semi-major axis
6,824.872 km
Eccentricity
0.00057
Inclination
53.0525°
RAAN
214.593°
Arg. of periapsis
114.3856°
True anomaly
245.71471°
Mean anomaly
245.7743°
Eccentric anomaly
245.7445°
Mean motion
3.84947 °/min
Orbital period
93.52 mins
BSTAR
0.00083762
Loading maneuver chart data...
Computing Atmospheric mass density...
Loading historical data...
Loading historical data...
Loading historical data...
Loading historical data...
Loading historical data...
Loading historical data...
Loading historical data...

Documentation

Showing up to 5 results
|